User: anonymous   Login
Location: Central Coast
(33.3208°S, 151.2336°E)
Time: 05:20:44
(UTC+11:00)
Language:

Hubble Space Telescope - Orbit

View from above orbital plane
View from above orbital plane
View from above satellite
View from above satellite

Ground track
Ground track

The orbit data is extracted from the following two-line orbital elements,

1 20580U 90037B   18022.22203115  .00000468  00000-0  17718-4 0  9999
2 20580  28.4708 359.9674 0002689  15.7420  97.7669 15.08966692323399
Epoch (UTC): 22 January 2018 05:19:43
Eccentricity: 0.0002689
inclination: 28.4708°
perigee height: 537 km
apogee height: 541 km
right ascension of ascending node: 359.9674°
argument of perigee: 15.7420°
revolutions per day: 15.08966692
mean anomaly at epoch: 97.7669°
orbit number at epoch: 32339

The dashed part of the orbit path shows where the satellite is in the earth's shadow,  

DLR